{"data":{"norad_id":57937,"epoch":"2026-05-25T02:38:07.245312Z","epoch_age_seconds":62593,"freshness":"FRESH","line1":"1 57937U 23148C   26145.10980608  .00131203  00000+0  42251-2 0  9994","line2":"2 57937  53.1611  29.2151 0003531 159.4906 200.6238 15.31244365150120","mean_motion":15.31244365,"eccentricity":0.0003531,"inclination_deg":53.1611,"raan_deg":29.2151,"arg_perigee_deg":159.4906,"mean_anomaly_deg":200.6238,"bstar":0.0042251,"rev_number":15012,"period_min":94.041162398008,"perigee_km":469.67973805809,"apogee_km":474.5173744079,"semimajor_km":6850.235556233,"source":"CELESTRAK","updated_at":"2026-05-25T13:38:18.460506Z"}}